TimeCST,TemperatureF,Dew PointF,Humidity,Sea Level PressureIn,VisibilityMPH,Wind Direction,Wind SpeedMPH,Gust SpeedMPH,PrecipitationIn,Events,Conditions,WindDirDegrees,DateUTC
12:55 AM,34.5,28.9,80,30.25,10.0,NW,4.6,-,N/A,,Clear,320,2013-01-24 06:55:00
1:55 AM,34.2,22.5,62,30.28,10.0,NNW,11.5,-,N/A,,Clear,330,2013-01-24 07:55:00
2:55 AM,32.0,19.6,60,30.31,10.0,North,12.7,19.6,N/A,,Clear,350,2013-01-24 08:55:00
3:55 AM,29.3,19.6,67,30.34,10.0,North,15.0,19.6,N/A,,Clear,360,2013-01-24 09:55:00
4:55 AM,26.8,17.6,68,30.37,10.0,North,13.8,-,N/A,,Clear,360,2013-01-24 10:55:00
5:55 AM,25.5,16.7,69,30.42,10.0,North,13.8,-,N/A,,Clear,10,2013-01-24 11:55:00
6:07 AM,24.8,17.6,74,30.43,10.0,North,12.7,-,N/A,,Mostly Cloudy,10,2013-01-24 12:07:00
6:10 AM,24.8,17.6,74,30.43,10.0,North,16.1,-,N/A,,Scattered Clouds,10,2013-01-24 12:10:00
6:55 AM,23.2,9.5,56,30.46,10.0,North,16.1,-,N/A,,Clear,10,2013-01-24 12:55:00
7:55 AM,23.2,11.3,60,30.49,10.0,NNE,16.1,-,N/A,,Clear,30,2013-01-24 13:55:00
8:55 AM,23.9,12.4,62,30.51,10.0,NNE,15.0,-,N/A,,Clear,20,2013-01-24 14:55:00
9:55 AM,26.4,12.9,57,30.53,10.0,NE,16.1,-,N/A,,Clear,40,2013-01-24 15:55:00
10:55 AM,28.4,12.4,51,30.55,10.0,NE,13.8,-,N/A,,Clear,40,2013-01-24 16:55:00
11:55 AM,30.4,11.1,45,30.51,10.0,NNE,16.1,-,N/A,,Clear,30,2013-01-24 17:55:00
12:55 PM,32.0,9.9,40,30.48,10.0,NE,12.7,-,N/A,,Clear,40,2013-01-24 18:55:00
1:55 PM,32.9,7.3,34,30.46,10.0,ENE,12.7,-,N/A,,Clear,70,2013-01-24 19:55:00
2:55 PM,32.2,7.2,35,30.45,10.0,East,11.5,-,N/A,,Clear,80,2013-01-24 20:55:00
3:55 PM,31.8,5.2,33,30.44,10.0,ENE,10.4,-,N/A,,Clear,60,2013-01-24 21:55:00
4:55 PM,30.7,5.9,35,30.43,10.0,East,9.2,-,N/A,,Scattered Clouds,100,2013-01-24 22:55:00
5:55 PM,28.8,6.8,40,30.44,10.0,East,5.8,-,N/A,,Partly Cloudy,80,2013-01-24 23:55:00
6:55 PM,28.2,6.3,39,30.43,10.0,East,9.2,-,N/A,,Mostly Cloudy,80,2013-01-25 00:55:00
7:55 PM,27.3,5.2,39,30.40,10.0,East,10.4,-,N/A,,Mostly Cloudy,80,2013-01-25 01:55:00
8:55 PM,28.0,2.5,34,30.39,10.0,East,11.5,-,N/A,,Overcast,90,2013-01-25 02:55:00
9:55 PM,28.2,3.4,35,30.36,10.0,East,13.8,-,N/A,,Overcast,90,2013-01-25 03:55:00
10:55 PM,28.2,4.8,37,30.33,10.0,ESE,11.5,-,N/A,,Overcast,110,2013-01-25 04:55:00
11:55 PM,28.8,5.4,37,30.32,10.0,East,9.2,-,N/A,,Overcast,90,2013-01-25 05:55:00